sat.trackr.live / text

‹ back to catalog

STARLINK-1152

NORAD 45096 · 2020-006BE

PAYLOAD ACTIVE UNKNOWN

§ Identity

Operator
Country
US
Launch date
2020-01-29
Launch site
AFETR
Launch vehicle
Mass (kg)
RCS (m²)

Purposes: comms

External: N2YO · Heavens-Above · Gunter

§ Orbital elements

Epoch: 2026-05-25T03:46:03.021024Z

Period
93.08 min
Inclination
53.0344°
Eccentricity
0.0004016
Mean motion
15.47081797 rev/d
Perigee alt
422.5 km
Apogee alt
428.0 km
Semi-major
6,803.4 km
B*
9.6707e-4
RAAN
203.2845°
Arg perigee
23.0474°
Mean anomaly
337.0711°
Rev number
34,939

§ Raw data

STARLINK-11521 45096U 20006BE  26145.15697941  .00049657  00000+0  96707-3 0  99942 45096  53.0344 203.2845 0004016  23.0474 337.0711 15.47081797349399

JSON: /api/v1/satellites/45096 · /tle

For live sub-satellite position, see the globe view (requires WebGL).

§ Visibility from observer

Set your observer location to see the next 7 days of passes ≥ 10°. The values pass through the URL so the page stays shareable.

No JS? Fill the form by hand. The geolocation button needs JavaScript.